GW3823 Weather Reports


time (UTC)temp
C
wind
direction
speed
KPH
gust
KPH
rain 1hr
cm
rain 24hr
cm
rain mn
cm
humidity
%
barometer
mb
20260503204304 15 207 12.9 32.2 0.00 0.00 0.00 20 1008.7
20260503203805 16 257 14.5 32.2 0.00 0.00 0.00 18 1016.5
20260503203305 15 195 11.3 33.8 0.00 0.00 0.00 20 1008.5
20260503202305 15 193 4.8 33.8 0.00 0.00 0.00 20 1008.9
20260503201805 15 217 11.3 37.0 0.00 0.00 0.00 19 1008.8
20260503201305 16 157 16.1 33.8 0.00 0.00 0.00 18 1015.7
20260503200304 16 163 11.3 46.7 0.00 0.00 0.00 16 1009.0
20260503195805 19 172 12.9 35.4 0.00 0.00 0.00 20 1008.9
20260503195305 19 172 17.7 40.2 0.00 0.00 0.00 20 1008.9
20260503194305 19 184 16.1 35.4 0.00 0.00 0.00 21 1009.1
20260503193804 14 179 17.7 46.7 0.00 0.00 0.00 22 1013.0
20260503193305 19 136 9.7 38.6 0.00 0.00 0.00 23 1009.0
20260503192805 19 150 24.1 38.6 0.00 0.00 0.00 20 1017.4
20260503192305 19 353 12.9 24.1 0.00 0.00 0.00 22 1009.4
20260503191805 19 188 6.4 41.8 0.00 0.00 0.00 20 1017.1
20260503190805 19 166 9.7 46.7 0.00 0.00 0.00 21 1009.4
20260503190305 19 151 8.0 38.6 0.00 0.00 0.00 22 1017.1
20260503185805 18 176 9.7 25.7 0.00 0.00 0.00 22 1009.5
20260503185305 18 253 12.9 33.8 0.00 0.00 0.00 24 1009.4
20260503184805 18 164 16.1 38.6 0.00 0.00 0.00 22 1009.6
20260503183805 18 162 8.0 45.1 0.00 0.00 0.00 22 1009.6
20260503183305 18 183 12.9 33.8 0.00 0.00 0.00 21 1010.1
20260503182805 18 209 12.9 33.8 0.00 0.00 0.00 20 1009.7
20260503181305 18 166 22.5 56.3 0.00 0.00 0.00 21 1009.9
20260503180804 18 161 19.3 56.3 0.00 0.00 0.00 23 1009.8
20260503180305 18 176 14.5 38.6 0.00 0.00 0.00 25 1010.0
20260503175805 16 163 20.9 38.6 0.00 0.00 0.00 24 1009.9
20260503175305 16 207 4.8 38.6 0.00 0.00 0.00 25 1010.3
20260503174804 16 146 14.5 32.2 0.00 0.00 0.00 25 1015.3
20260503172804 16 155 19.3 37.0 0.00 0.00 0.00 26 1016.4
20260503171804 16 193 11.3 32.2 0.00 0.00 0.00 26 1016.5
20260503171305 16 206 11.3 41.8 0.00 0.00 0.00 26 1010.8
20260503170804 15 168 14.5 41.8 0.00 0.00 0.00 27 1010.6
20260503170304 15 195 14.5 35.4 0.00 0.00 0.00 27 1010.7
20260503150305 6 203 4.8 11.3 0.00 0.00 0.00 47 1020.1
20260503140305 1 173 4.8 9.7 0.00 0.00 0.00 63 1012.2
20260503131304 0 40 6.4 9.7 0.00 0.00 0.00 67 1012.6
20260503130804 0 37 6.4 8.0 0.00 0.00 0.00 68 1012.3
20260503130304 0 53 4.8 8.0 0.00 0.00 0.00 68 1012.5
20260503110305 0 35 6.4 9.7 0.00 0.00 0.00 67 1012.5
20260503090306 1 46 4.8 12.9 0.00 0.00 0.00 64 1012.4
20260503081306 2 120 3.2 11.3 0.00 0.00 0.00 62 1012.5
20260503080806 1 69 8.0 12.9 0.00 0.00 0.00 54 1017.7
20260503080306 2 59 8.0 12.9 0.00 0.00 0.00 60 1012.5
20260503072806 2 65 8.0 20.9 0.00 0.00 0.00 60 1012.8
20260503072306 1 60 14.5 20.9 0.00 0.00 0.00 61 1013.0
20260503071805 2 79 12.9 14.5 0.00 0.00 0.00 59 1012.9
20260503071306 2 72 8.0 14.5 0.00 0.00 0.00 58 1013.0
20260503070806 2 77 8.0 14.5 0.00 0.00 0.00 46 1021.1
20260503060306 3 67 8.0 19.3 0.00 0.00 0.00 54 1012.8
20260503054806 3 57 11.3 16.1 0.00 0.00 0.00 53 1012.7
20260503054306 4 65 8.0 11.3 0.00 0.00 0.00 52 1012.5
20260503053806 4 110 4.8 19.3 0.00 0.00 0.00 51 1012.5
20260503053305 5 58 11.3 19.3 0.00 0.00 0.00 51 1012.6
20260503052306 5 72 8.0 14.5 0.00 0.00 0.00 47 1012.5
20260503051806 5 70 9.7 14.5 0.00 0.00 0.00 35 1021.1
20260503051306 5 79 9.7 19.3 0.00 0.00 0.00 48 1012.5
20260503050806 5 72 11.3 20.9 0.00 0.00 0.00 49 1012.3
20260503045806 5 52 9.7 16.1 0.00 0.00 0.00 48 1012.4
20260503045305 6 70 12.9 20.9 0.00 0.00 0.00 48 1012.4
20260503044806 5 67 11.3 20.9 0.00 0.00 0.00 47 1012.3
20260503043306 6 67 11.3 19.3 0.00 0.00 0.00 34 1018.9
20260503042806 6 62 11.3 19.3 0.00 0.00 0.00 43 1012.3
20260503042305 7 102 6.4 19.3 0.00 0.00 0.00 42 1012.0
20260503041806 6 54 12.9 24.1 0.00 0.00 0.00 35 1017.9
20260503040806 6 61 11.3 24.1 0.00 0.00 0.00 43 1012.0
20260503040306 7 77 9.7 19.3 0.00 0.00 0.00 41 1012.0
20260503035805 6 88 11.3 20.9 0.00 0.00 0.00 25 1019.5
20260503034806 7 51 14.5 19.3 0.00 0.00 0.00 40 1011.8
20260503034305 8 70 14.5 22.5 0.00 0.00 0.00 40 1012.1
20260503033806 7 75 14.5 20.9 0.00 0.00 0.00 40 1011.8
20260503033306 8 44 9.7 24.1 0.00 0.00 0.00 39 1011.8
20260503032806 7 65 14.5 22.5 0.00 0.00 0.00 39 1011.9
20260503031805 8 68 9.7 19.3 0.00 0.00 0.00 38 1011.7
20260503031306 7 68 9.7 16.1 0.00 0.00 0.00 31 1015.4
20260503030805 8 86 11.3 24.1 0.00 0.00 0.00 37 1011.5
20260503030306 9 61 14.5 24.1 0.00 0.00 0.00 37 1011.5
20260503025805 7 53 9.7 16.1 0.00 0.00 0.00 38 1011.5
20260503025306 12 55 9.7 14.5 0.00 0.00 0.00 38 1011.4
20260503024806 7 53 8.0 14.5 0.00 0.00 0.00 38 1011.3
20260503024305 8 37 4.8 8.0 0.00 0.00 0.00 38 1011.4
20260503023806 8 187 1.6 3.2 0.00 0.00 0.00 22 1013.1
20260503022305 11 51 1.6 3.2 0.00 0.00 0.00 34 1010.9
20260503021805 10 151 0.0 4.8 0.00 0.00 0.00 24 1011.0
20260503020806 11 31 0.0 3.2 0.00 0.00 0.00 29 1010.9
20260503020306 12 46 0.0 3.2 0.00 0.00 0.00 25 1010.9
20260503015806 12 215 0.0 3.2 0.00 0.00 0.00 29 1016.0
20260503015306 12 12 1.6 4.8 0.00 0.00 0.00 28 1010.7
20260503014306 13 273 1.6 8.0 0.00 0.00 0.00 27 1010.7
20260503013805 12 317 1.6 8.0 0.00 0.00 0.00 25 1010.7
20260503013305 13 39 4.8 8.0 0.00 0.00 0.00 25 1016.4
20260503012805 13 306 3.2 8.0 0.00 0.00 0.00 24 1010.6
20260503012306 13 184 1.6 8.0 0.00 0.00 0.00 21 1010.5
20260503011805 13 255 1.6 8.0 0.00 0.00 0.00 22 1010.5
20260503010805 13 229 3.2 11.3 0.00 0.00 0.00 21 1010.6
20260503010306 13 64 1.6 16.1 0.00 0.00 0.00 21 1010.3
20260503005805 14 168 4.8 14.5 0.00 0.00 0.00 19 1010.5
20260503005306 15 187 8.0 14.5 0.00 0.00 0.00 18 1010.4
20260503004805 14 184 4.8 12.9 0.00 0.00 0.00 20 1010.4
20260503004306 15 209 4.8 14.5 0.00 0.00 0.00 19 1010.4
20260503003805 16 49 3.2 14.5 0.00 0.00 0.00 18 1016.4
20260503002805 16 225 3.2 16.1 0.00 0.00 0.00 20 1010.4
20260503002305 15 186 4.8 12.9 0.00 0.00 0.00 19 1010.6
20260503001806 16 105 1.6 9.7 0.00 0.00 0.00 18 1018.7
20260503001306 16 175 4.8 20.9 0.00 0.00 0.00 18 1010.4
20260503000806 15 130 8.0 24.1 0.00 0.00 0.00 19 1010.4
20260503000305 16 158 9.7 32.2 0.00 0.00 0.00 18 1010.4
20260502235805 20 220 3.2 29.0 0.00 0.00 0.00 18 1010.4
20260502235305 19 195 14.5 29.0 0.00 0.00 0.00 20 1016.8
20260502233305 20 228 3.2 14.5 0.00 0.00 0.00 20 1014.8
20260502232305 19 180 11.3 22.5 0.00 0.00 0.00 20 1016.1
20260502231806 20 237 6.4 20.9 0.00 0.00 0.00 14 1010.5
20260502231305 19 175 9.7 24.1 0.00 0.00 0.00 20 1010.4
20260502230805 18 159 12.9 24.1 0.00 0.00 0.00 21 1010.4
20260502230305 18 169 6.4 27.4 0.00 0.00 0.00 21 1010.4
20260502225806 18 157 4.8 24.1 0.00 0.00 0.00 21 1010.5
20260502224805 18 58 11.3 19.3 0.00 0.00 0.00 21 1010.6
20260502224305 18 198 9.7 29.0 0.00 0.00 0.00 23 1010.5
20260502223305 18 138 8.0 25.7 0.00 0.00 0.00 22 1020.0
20260502222306 18 169 9.7 25.7 0.00 0.00 0.00 23 1010.9
20260502221805 18 197 9.7 38.6 0.00 0.00 0.00 23 1020.0
20260502221305 18 168 9.7 27.4 0.00 0.00 0.00 17 1010.8
20260502220805 18 184 9.7 16.1 0.00 0.00 0.00 22 1010.8
20260502220305 18 147 4.8 16.1 0.00 0.00 0.00 22 1010.8
20260502215806 18 169 6.4 24.1 0.00 0.00 0.00 22 1011.1
20260502214305 18 128 3.2 11.3 0.00 0.00 0.00 23 1011.1
20260502213804 18 153 4.8 16.1 0.00 0.00 0.00 20 1011.3
20260502213306 18 161 8.0 16.1 0.00 0.00 0.00 21 1011.3
20260502212305 18 174 11.3 33.8 0.00 0.00 0.00 22 1011.4
20260502211804 18 288 3.2 16.1 0.00 0.00 0.00 16 1017.4
20260502210805 18 165 9.7 25.7 0.00 0.00 0.00 19 1020.0
20260502210305 18 181 4.8 20.9 0.00 0.00 0.00 20 1011.5
20260502205805 15 96 6.4 20.9 0.00 0.00 0.00 19 1011.7
20260502205305 15 186 4.8 22.5 0.00 0.00 0.00 22 1011.6